• In Hungary
  • List of Countries
  • For 7 days
  • Water Temperature
  • Satellite Maps
  • Weather Map
  • News
  • Weather Widgets
  • user-avatar
    Login

    Hourly Weather Gajsin

    Today, 18 September, Tuesday

    Time Temperature Precipitation Wind Pressure Humidity
    00:00 +14°C° 0 mm 1 mps 750 mmHg 64%
    01:00 +14°C° 0 mm 1 mps 750 mmHg 65%
    02:00 +14°C° 0 mm 1 mps 750 mmHg 66%
    03:00 +13°C° 0 mm 1 mps 750 mmHg 67%
    04:00 +13°C° 0 mm 1 mps 750 mmHg 68%
    05:00 +13°C° 0 mm 1 mps 750 mmHg 69%
    06:00 +14°C° 0 mm 2 mps 750 mmHg 67%
    07:00 +16°C° 0 mm 2 mps 750 mmHg 64%
    08:00 +17°C° 0 mm 2 mps 750 mmHg 59%
    09:00 +19°C° 0 mm 2 mps 750 mmHg 55%
    10:00 +20°C° 0 mm 2 mps 750 mmHg 51%
    11:00 +23°C° 0 mm 2 mps 750 mmHg 46%
    12:00 +23°C° 0 mm 2 mps 750 mmHg 45%
    13:00 +24°C° 0 mm 2 mps 750 mmHg 43%
    14:00 +25°C° 0 mm 2 mps 750 mmHg 41%
    15:00 +24°C° 0 mm 2 mps 750 mmHg 44%
    16:00 +24°C° 0 mm 1 mps 749 mmHg 47%
    17:00 +24°C° 0 mm 1 mps 749 mmHg 50%
    18:00 +22°C° 0 mm 1 mps 749 mmHg 53%
    19:00 +20°C° 0 mm 1 mps 749 mmHg 55%
    20:00 +19°C° 0 mm 1 mps 749 mmHg 58%
    21:00 +18°C° 0 mm 1 mps 749 mmHg 59%
    22:00 +18°C° 0 mm 1 mps 750 mmHg 60%
    23:00 +18°C° 0 mm 1 mps 750 mmHg 62%

    Tomorrow, 19 September, Wednesday

    Time Temperature Precipitation Wind Pressure Humidity
    00:00 +16°C° 0 mm 1 mps 750 mmHg 62%
    01:00 +16°C° 0 mm 1 mps 750 mmHg 63%
    02:00 +16°C° 0 mm 1 mps 750 mmHg 64%
    03:00 +15°C° 0 mm 1 mps 750 mmHg 65%
    04:00 +15°C° 0 mm 1 mps 750 mmHg 66%
    05:00 +15°C° 0 mm 1 mps 750 mmHg 67%
    06:00 +16°C° 0 mm 1 mps 750 mmHg 64%
    07:00 +18°C° 0 mm 1 mps 750 mmHg 61%
    08:00 +20°C° 0 mm 1 mps 750 mmHg 59%
    09:00 +21°C° 0 mm 2 mps 750 mmHg 54%
    10:00 +23°C° 0 mm 2 mps 750 mmHg 49%
    11:00 +25°C° 0 mm 2 mps 750 mmHg 44%
    12:00 +26°C° 0 mm 2 mps 750 mmHg 42%
    13:00 +27°C° 0 mm 2 mps 750 mmHg 40%
    14:00 +27°C° 0 mm 3 mps 750 mmHg 38%
    15:00 +27°C° 0 mm 2 mps 750 mmHg 41%
    16:00 +26°C° 0 mm 2 mps 749 mmHg 44%
    17:00 +25°C° 0 mm 1 mps 749 mmHg 47%
    18:00 +24°C° 0 mm 1 mps 749 mmHg 49%
    19:00 +22°C° 0 mm 1 mps 749 mmHg 52%
    20:00 +21°C° 0 mm 1 mps 749 mmHg 54%
    21:00 +20°C° 0 mm 1 mps 749 mmHg 55%
    22:00 +20°C° 0 mm 1 mps 749 mmHg 56%
    23:00 +18°C° 0 mm 2 mps 749 mmHg 57%

    Day after tomorrow, 20 September, Thursday

    Time Temperature Precipitation Wind Pressure Humidity
    00:00 +18°C° 0 mm 2 mps 749 mmHg 57%
    01:00 +18°C° 0 mm 1 mps 749 mmHg 58%
    02:00 +18°C° 0 mm 1 mps 749 mmHg 59%
    03:00 +18°C° 0 mm 1 mps 749 mmHg 59%
    04:00 +16°C° 0 mm 1 mps 749 mmHg 60%
    05:00 +16°C° 0 mm 1 mps 749 mmHg 61%
    06:00 +18°C° 0 mm 1 mps 749 mmHg 58%
    07:00 +19°C° 0 mm 1 mps 749 mmHg 56%
    08:00 +21°C° 0 mm 1 mps 749 mmHg 54%
    09:00 +22°C° 0 mm 1 mps 749 mmHg 49%
    10:00 +24°C° 0 mm 1 mps 749 mmHg 44%
    11:00 +26°C° 0 mm 2 mps 749 mmHg 39%
    12:00 +27°C° 0 mm 2 mps 749 mmHg 37%
    13:00 +27°C° 0 mm 2 mps 749 mmHg 35%
    14:00 +28°C° 0 mm 2 mps 749 mmHg 33%
    15:00 +27°C° 0 mm 1 mps 748 mmHg 37%
    16:00 +27°C° 0 mm 1 mps 748 mmHg 40%
    17:00 +24°C° 0 mm 0 mps 748 mmHg 43%
    18:00 +22°C° 0 mm 0 mps 748 mmHg 45%
    19:00 +21°C° 0 mm 0 mps 748 mmHg 47%
    20:00 +19°C° 0 mm 0 mps 748 mmHg 48%
    21:00 +19°C° 0 mm 0 mps 748 mmHg 50%
    22:00 +18°C° 0 mm 0 mps 748 mmHg 51%
    23:00 +18°C° 0 mm 0 mps 748 mmHg 53%

    21 September, Friday

    Time Temperature Precipitation Wind Pressure Humidity
    00:00 +17°C° 0 mm 0 mps 748 mmHg 54%
    01:00 +17°C° 0 mm 0 mps 748 mmHg 55%
    02:00 +17°C° 0 mm 0 mps 748 mmHg 56%
    03:00 +16°C° 0 mm 0 mps 748 mmHg 57%
    04:00 +18°C° 0 mm 1 mps 747 mmHg 58%
    05:00 +18°C° 0 mm 1 mps 747 mmHg 59%
    06:00 +19°C° 0 mm 1 mps 748 mmHg 57%
    07:00 +20°C° 0 mm 1 mps 748 mmHg 56%
    08:00 +21°C° 0 mm 1 mps 748 mmHg 54%
    09:00 +23°C° 0 mm 1 mps 748 mmHg 49%
    10:00 +25°C° 0 mm 2 mps 748 mmHg 44%
    11:00 +27°C° 0 mm 2 mps 748 mmHg 40%
    12:00 +27°C° 0 mm 2 mps 747 mmHg 38%
    13:00 +28°C° 0 mm 2 mps 747 mmHg 36%
    14:00 +28°C° 0 mm 2 mps 747 mmHg 34%
    15:00 +28°C° 0 mm 2 mps 746 mmHg 37%
    16:00 +27°C° 0 mm 2 mps 746 mmHg 40%
    17:00 +26°C° 0 mm 1 mps 746 mmHg 43%
    18:00 +25°C° 0 mm 2 mps 746 mmHg 44%
    19:00 +23°C° 0 mm 2 mps 746 mmHg 46%
    20:00 +21°C° 0 mm 2 mps 746 mmHg 47%
    21:00 +20°C° 0 mm 2 mps 746 mmHg 48%
    22:00 +20°C° 0 mm 2 mps 745 mmHg 50%
    23:00 +19°C° 0 mm 2 mps 745 mmHg 51%

    22 September, Saturday

    Time Temperature Precipitation Wind Pressure Humidity
    00:00 +19°C° 0 mm 2 mps 745 mmHg 52%
    01:00 +18°C° 0 mm 2 mps 745 mmHg 53%
    02:00 +18°C° 0 mm 2 mps 744 mmHg 54%
    03:00 +17°C° 0 mm 2 mps 744 mmHg 54%
    04:00 +17°C° 0 mm 2 mps 744 mmHg 54%
    05:00 +17°C° 0 mm 2 mps 744 mmHg 55%
    06:00 +18°C° 0 mm 3 mps 744 mmHg 53%
    07:00 +19°C° 0 mm 3 mps 744 mmHg 52%
    08:00 +20°C° 0 mm 3 mps 744 mmHg 50%
    09:00 +22°C° 0 mm 4 mps 744 mmHg 46%
    10:00 +25°C° 0 mm 4 mps 744 mmHg 41%
    11:00 +27°C° 0 mm 5 mps 744 mmHg 36%
    12:00 +27°C° 0 mm 5 mps 743 mmHg 35%
    13:00 +28°C° 0 mm 5 mps 743 mmHg 33%
    14:00 +28°C° 0 mm 5 mps 742 mmHg 32%
    15:00 +28°C° 0 mm 4 mps 742 mmHg 36%
    16:00 +27°C° 0 mm 4 mps 741 mmHg 39%
    17:00 +26°C° 0 mm 3 mps 741 mmHg 43%
    18:00 +24°C° 0 mm 3 mps 741 mmHg 45%
    19:00 +22°C° 0 mm 3 mps 741 mmHg 46%
    20:00 +21°C° 0 mm 3 mps 741 mmHg 48%
    21:00 +19°C° 0 mm 4 mps 741 mmHg 54%
    22:00 +17°C° 0 mm 5 mps 741 mmHg 60%
    23:00 +16°C° 0 mm 5 mps 742 mmHg 65%

    23 September, Sunday

    Time Temperature Precipitation Wind Pressure Humidity
    00:00 +15°C° 0 mm 6 mps 742 mmHg 70%
    01:00 +12°C° 0 mm 7 mps 742 mmHg 74%
    02:00 +11°C° 0 mm 8 mps 742 mmHg 79%
    03:00 +10°C° 1.1 mm 8 mps 742 mmHg 80%
    04:00 +10°C° 1.1 mm 8 mps 742 mmHg 82%
    05:00 +9°C° 1.1 mm 8 mps 742 mmHg 84%
    06:00 +9°C° 2.3 mm 8 mps 743 mmHg 85%
    07:00 +7°C° 2.3 mm 8 mps 743 mmHg 85%
    08:00 +7°C° 2.3 mm 8 mps 743 mmHg 86%
    09:00 +9°C° 1 mm 8 mps 743 mmHg 84%
    10:00 +9°C° 1 mm 8 mps 744 mmHg 81%
    11:00 +9°C° 1 mm 8 mps 744 mmHg 79%
    12:00 +10°C° 0.2 mm 8 mps 744 mmHg 74%
    13:00 +11°C° 0.2 mm 8 mps 744 mmHg 70%
    14:00 +12°C° 0.2 mm 8 mps 744 mmHg 66%
    15:00 +12°C° 0.1 mm 7 mps 744 mmHg 66%
    16:00 +13°C° 0.1 mm 6 mps 744 mmHg 67%
    17:00 +13°C° 0.1 mm 5 mps 744 mmHg 68%
    18:00 +12°C° 0 mm 5 mps 744 mmHg 71%
    19:00 +11°C° 0 mm 4 mps 744 mmHg 75%
    20:00 +10°C° 0 mm 4 mps 744 mmHg 78%
    21:00 +10°C° 0 mm 4 mps 743 mmHg 78%
    22:00 +10°C° 0 mm 4 mps 743 mmHg 78%
    23:00 +9°C° 0 mm 5 mps 743 mmHg 77%
    Show more